Location: Étavigny
(49.1201°N, 2.9800°E)
Time: 08:16:55
(UTC+00:00)

BREEZE-M DEB (TANK) - Pass Details

Date: 28 January 2023
Orbit: 426 x 13838 km, 45.9° (Epoch: 20 March)

Event Time Altitude Azimuth Distance (km) Brightness Sun altitude
Rises 17:56:17 0° 251° (WSW) 2,391 7.6 -12.8°
Reaches altitude 10° 17:57:53 10° 246° (WSW) 1,618 6.1 -13.1°
Maximum altitude 18:00:54 55° 167° (SSE) 765 3.0 -13.6°
Enters shadow 18:05:00 18° 94° (E) 2,326 4.9 -14.2°
